GFSGL_prec_pwat_132.txt.gz
Precipitable_Water
0.80 0.77 0.72 0.73 0.81 0.87 0.90 0.94 0.98 1.02 1.05 1.05 1.05 1.06 1.15 1.23 1.36 1.40 1.40 1.41 1.50 1.72 1.95 2.01 2.13 1.99 1.96 1.80 1.76 1.69 1.46 1.45 1.38 1.52 1.60 1.70 1.72 1.73 1.80 1.92 1.94 1.94 1.91
0.77 0.74 0.74 0.78 0.83 0.88 0.93 0.99 1.05 1.05 1.10 1.12 1.11 1.14 1.14 1.12 1.22 1.30 1.33 1.40 1.39 1.37 1.47 1.57 1.58 1.63 1.70 1.66 1.81 1.69 1.58 1.45 1.39 1.36 1.50 1.58 1.63 1.76 1.82 1.85 1.86 1.94 1.88
0.70 0.70 0.71 0.73 0.83 0.92 0.98 1.04 1.09 1.10 1.12 1.15 1.16 1.13 1.19 1.21 1.14 1.18 1.28 1.37 1.37 1.32 1.31 1.28 1.23 1.07 1.12 1.40 1.66 2.05 1.70 1.50 1.46 1.44 1.38 1.59 1.69 1.77 1.78 1.85 1.81 1.78 1.78
0.69 0.69 0.67 0.73 0.86 0.96 1.02 1.08 1.15 1.18 1.17 1.18 1.21 1.20 1.19 1.27 1.27 1.21 1.21 1.27 1.34 1.35 1.36 1.39 1.31 1.11 1.05 1.16 1.26 1.64 1.60 1.55 1.49 1.46 1.43 1.49 1.64 1.75 1.75 1.67 1.59 1.62 1.54
0.70 0.66 0.72 0.85 0.93 0.97 1.01 1.09 1.17 1.25 1.28 1.31 1.31 1.30 1.25 1.23 1.29 1.28 1.25 1.24 1.26 1.31 1.33 1.41 1.38 1.24 1.18 1.20 1.34 1.52 1.66 1.54 1.55 1.48 1.43 1.46 1.54 1.59 1.52 1.61 1.49 1.52 1.59
0.70 0.63 0.71 0.84 0.92 1.00 1.06 1.13 1.24 1.33 1.36 1.39 1.41 1.40 1.30 1.25 1.30 1.36 1.36 1.28 1.26 1.27 1.24 1.32 1.39 1.26 1.24 1.26 1.37 1.64 1.85 1.69 1.60 1.51 1.46 1.41 1.49 1.55 1.61 1.56 1.54 1.49 1.37
0.64 0.64 0.69 0.84 0.91 1.00 1.08 1.17 1.32 1.31 1.35 1.39 1.48 1.46 1.32 1.32 1.41 1.45 1.53 1.47 1.36 1.30 1.29 1.36 1.39 1.37 1.36 1.36 1.35 1.58 1.66 1.86 1.87 1.72 1.52 1.56 1.55 1.62 1.66 1.58 1.54 1.52 1.45
0.64 0.65 0.74 0.89 0.96 1.06 1.12 1.23 1.26 1.30 1.35 1.54 1.51 1.42 1.39 1.48 1.51 1.55 1.58 1.56 1.47 1.44 1.49 1.51 1.46 1.44 1.43 1.49 1.39 1.36 1.44 1.62 1.79 1.79 1.75 1.77 1.80 1.80 1.75 1.75 1.69 1.66 1.62
0.63 0.66 0.83 0.96 1.03 1.11 1.10 1.18 1.28 1.28 1.34 1.57 1.49 1.46 1.49 1.51 1.58 1.64 1.60 1.55 1.52 1.49 1.53 1.57 1.55 1.56 1.54 1.61 1.51 1.46 1.59 1.64 1.79 1.72 1.74 1.85 1.90 1.86 1.87 1.84 1.66 1.57 1.45
0.69 0.72 0.95 1.03 1.13 1.11 1.16 1.16 1.37 1.26 1.33 1.49 1.56 1.57 1.58 1.58 1.68 1.69 1.63 1.56 1.45 1.44 1.50 1.56 1.62 1.63 1.59 1.61 1.55 1.50 1.56 1.57 1.65 1.67 1.68 1.70 1.84 1.86 1.91 1.90 1.81 1.65 1.63
0.74 0.80 0.93 1.08 1.16 1.17 1.19 1.25 1.28 1.19 1.31 1.37 1.43 1.53 1.58 1.65 1.68 1.66 1.62 1.63 1.60 1.60 1.58 1.54 1.60 1.66 1.68 1.60 1.60 1.56 1.51 1.61 1.64 1.69 1.70 1.69 1.66 1.71 1.71 1.79 1.91 1.86 1.73
0.77 0.86 0.95 1.09 1.12 1.20 1.20 1.21 1.19 1.06 1.13 1.27 1.31 1.36 1.50 1.59 1.66 1.70 1.70 1.71 1.74 1.65 1.63 1.70 1.71 1.67 1.69 1.72 1.70 1.67 1.66 1.71 1.75 1.72 1.69 1.65 1.64 1.64 1.68 1.79 1.88 1.94 2.00
0.80 0.86 0.96 1.03 1.10 1.22 1.16 1.12 1.09 1.06 0.98 1.20 1.28 1.18 1.35 1.53 1.61 1.65 1.72 1.74 1.73 1.70 1.73 1.74 1.75 1.74 1.71 1.70 1.69 1.73 1.77 1.73 1.68 1.66 1.67 1.73 1.78 1.87 1.90 1.89 1.93 1.98 2.05
0.77 0.81 0.96 0.95 1.01 1.20 1.24 1.15 0.99 0.98 0.93 1.06 1.20 1.24 1.18 1.40 1.53 1.63 1.69 1.76 1.77 1.76 1.78 1.75 1.72 1.72 1.74 1.72 1.71 1.71 1.71 1.68 1.65 1.63 1.65 1.74 1.83 1.82 1.83 1.95 1.87 1.89 1.86
0.77 0.84 0.90 0.87 1.02 1.09 1.26 1.22 0.95 0.97 0.98 0.96 1.01 1.10 1.10 1.19 1.39 1.49 1.58 1.66 1.69 1.70 1.67 1.68 1.61 1.53 1.47 1.50 1.56 1.65 1.68 1.66 1.67 1.72 1.74 1.74 1.73 1.73 1.70 1.77 1.76 1.76 1.68
0.76 0.79 0.86 0.88 0.93 0.92 0.96 1.04 1.05 0.97 0.98 0.96 1.01 0.98 1.05 1.10 1.28 1.30 1.37 1.44 1.47 1.50 1.43 1.36 1.33 1.32 1.35 1.40 1.42 1.43 1.49 1.53 1.52 1.60 1.67 1.67 1.63 1.63 1.62 1.66 1.71 1.67 1.60
0.78 0.79 0.88 0.84 0.86 0.84 0.81 0.82 0.81 0.92 0.95 0.94 0.95 0.98 0.96 1.06 1.09 1.17 1.21 1.19 1.18 1.16 1.10 1.10 1.09 1.12 1.15 1.23 1.34 1.36 1.28 1.28 1.46 1.47 1.45 1.42 1.43 1.42 1.39 1.37 1.39 1.36 1.27
0.86 0.81 0.82 0.87 0.84 0.83 0.82 0.81 0.79 0.80 0.75 0.80 0.92 0.90 0.93 0.95 0.97 0.98 1.03 1.01 0.95 0.97 1.00 0.94 0.89 0.86 0.87 0.90 0.94 0.99 1.12 1.17 1.15 1.16 1.18 1.16 1.16 1.10 1.11 1.15 1.17 1.16 1.18
0.85 0.86 0.85 0.86 0.87 0.93 0.89 0.82 0.83 0.84 0.81 0.85 0.86 0.87 0.90 0.91 0.92 0.92 0.93 0.89 0.87 0.85 0.86 0.87 0.92 0.92 0.88 0.89 0.88 0.86 0.84 0.82 0.84 0.91 0.95 0.94 0.93 0.93 0.92 0.92 0.90 0.92 0.93
0.93 0.88 0.88 0.94 0.95 0.89 0.86 0.81 0.82 0.86 0.91 0.92 0.88 0.85 0.85 0.84 0.82 0.85 0.87 0.89 0.88 0.91 0.94 0.94 0.95 0.95 0.94 0.91 0.92 0.93 0.92 0.90 0.91 0.90 0.89 0.90 0.93 0.93 0.85 0.82 0.81 0.78 0.78
0.96 0.86 0.85 0.95 0.84 0.86 0.87 0.84 0.84 0.81 0.84 0.84 0.84 0.85 0.83 0.79 0.75 0.75 0.76 0.77 0.79 0.81 0.83 0.87 0.92 1.00 1.00 1.00 1.00 0.91 0.91 0.90 0.91 0.91 0.93 0.93 0.94 0.93 0.94 0.94 0.94 0.92 0.87
0.98 0.93 0.83 0.81 0.86 0.88 0.87 0.90 0.87 0.85 0.82 0.80 0.82 0.83 0.82 0.79 0.76 0.73 0.72 0.71 0.72 0.73 0.74 0.73 0.74 0.80 0.87 0.93 0.94 0.90 0.93 0.89 0.90 0.91 0.88 0.90 0.89 0.91 0.94 0.93 0.94 0.92 0.91
1.01 0.93 0.80 0.82 0.85 0.84 0.83 0.88 0.85 0.83 0.81 0.79 0.78 0.75 0.72 0.68 0.64 0.60 0.57 0.56 0.56 0.55 0.54 0.52 0.51 0.54 0.61 0.68 0.76 0.79 0.77 0.79 0.84 0.84 0.83 0.82 0.79 0.80 0.79 0.77 0.86 0.85 0.89
0.91 0.87 0.79 0.79 0.77 0.76 0.76 0.75 0.73 0.71 0.70 0.71 0.71 0.69 0.67 0.63 0.58 0.55 0.53 0.51 0.48 0.46 0.46 0.46 0.46 0.46 0.48 0.48 0.48 0.49 0.55 0.62 0.66 0.66 0.67 0.66 0.66 0.69 0.69 0.67 0.65 0.70 0.70
0.81 0.76 0.68 0.66 0.65 0.63 0.60 0.57 0.55 0.53 0.51 0.50 0.49 0.48 0.46 0.46 0.44 0.43 0.43 0.44 0.45 0.46 0.47 0.49 0.51 0.51 0.51 0.50 0.50 0.49 0.48 0.47 0.46 0.46 0.46 0.45 0.44 0.44 0.43 0.43 0.44 0.46 0.48
0.72 0.66 0.59 0.56 0.53 0.50 0.48 0.46 0.45 0.44 0.43 0.42 0.42 0.42 0.41 0.41 0.41 0.41 0.41 0.41 0.42 0.42 0.42 0.43 0.44 0.48 0.51 0.52 0.52 0.50 0.49 0.47 0.47 0.46 0.47 0.46 0.44 0.43 0.42 0.40 0.39 0.38 0.37

GFSGL_prec_pwat_135.txt.gz
Precipitable_Water
0.90 0.84 0.79 0.74 0.76 0.79 0.81 0.89 0.95 1.00 1.05 1.06 1.07 1.08 1.09 1.09 1.16 1.17 1.16 1.28 1.40 1.44 1.41 1.42 1.58 1.90 1.97 2.07 2.04 1.92 1.74 1.58 1.34 1.32 1.45 1.55 1.69 1.71 1.77 1.87 1.90 1.87 1.88
0.85 0.80 0.77 0.75 0.74 0.74 0.82 0.91 0.99 1.02 1.07 1.09 1.11 1.12 1.15 1.14 1.13 1.13 1.18 1.22 1.24 1.35 1.38 1.43 1.37 1.45 1.63 1.84 1.77 1.58 1.70 1.75 1.55 1.30 1.40 1.37 1.48 1.76 1.74 1.75 1.82 1.89 1.88
0.82 0.80 0.79 0.73 0.73 0.81 0.84 0.91 0.96 1.00 1.05 1.09 1.15 1.15 1.16 1.17 1.18 1.19 1.16 1.26 1.31 1.29 1.36 1.40 1.39 1.40 1.33 1.40 1.44 1.36 1.42 1.44 1.61 1.45 1.43 1.48 1.34 1.60 1.67 1.76 1.80 1.84 1.91
0.78 0.76 0.71 0.69 0.77 0.82 0.89 0.97 1.02 1.08 1.08 1.15 1.17 1.20 1.22 1.24 1.27 1.29 1.27 1.21 1.32 1.34 1.33 1.41 1.38 1.42 1.32 1.31 1.25 1.14 1.15 1.20 1.34 1.44 1.43 1.48 1.49 1.41 1.60 1.56 1.67 1.78 1.74
0.79 0.75 0.67 0.67 0.72 0.84 0.91 0.99 1.08 1.09 1.15 1.16 1.11 1.21 1.30 1.33 1.36 1.34 1.34 1.27 1.29 1.32 1.38 1.33 1.39 1.39 1.39 1.40 1.31 1.16 1.11 1.11 1.19 1.37 1.71 1.69 1.43 1.35 1.36 1.49 1.63 1.66 1.75
0.80 0.73 0.67 0.70 0.78 0.86 0.95 1.06 1.10 1.10 1.11 1.08 1.13 1.27 1.39 1.50 1.49 1.47 1.43 1.30 1.30 1.35 1.32 1.37 1.40 1.40 1.34 1.39 1.43 1.37 1.22 1.09 1.13 1.35 1.70 1.53 1.50 1.50 1.50 1.50 1.61 1.60 1.45
0.79 0.75 0.67 0.72 0.83 0.94 1.05 1.08 1.09 1.07 1.05 1.07 1.19 1.37 1.53 1.54 1.55 1.52 1.45 1.35 1.30 1.37 1.37 1.34 1.37 1.42 1.35 1.36 1.44 1.32 1.19 1.22 1.31 1.51 1.53 1.64 1.58 1.66 1.65 1.57 1.60 1.65 1.53
0.68 0.65 0.69 0.79 0.94 1.04 1.08 1.07 1.11 1.15 1.06 1.04 1.22 1.47 1.51 1.55 1.54 1.47 1.42 1.42 1.38 1.35 1.43 1.36 1.39 1.36 1.37 1.41 1.49 1.37 1.33 1.40 1.37 1.67 1.78 1.86 1.89 1.89 1.84 1.79 1.72 1.79 1.73
0.67 0.69 0.71 0.85 0.94 1.03 1.04 1.07 1.14 1.13 1.01 1.04 1.31 1.39 1.45 1.49 1.56 1.54 1.57 1.51 1.49 1.52 1.58 1.54 1.45 1.37 1.39 1.49 1.48 1.39 1.38 1.40 1.56 1.54 1.69 1.73 1.96 1.93 1.97 1.93 1.73 1.68 1.48
0.70 0.69 0.79 0.92 1.00 1.04 1.10 1.10 1.14 1.12 0.95 1.11 1.31 1.40 1.51 1.49 1.56 1.58 1.59 1.60 1.54 1.52 1.55 1.54 1.52 1.55 1.60 1.58 1.51 1.49 1.36 1.44 1.52 1.51 1.59 1.71 1.84 1.92 1.90 1.93 1.86 1.67 1.55
0.75 0.75 0.87 0.94 0.99 1.09 1.14 1.15 1.13 1.09 0.96 1.04 1.22 1.38 1.46 1.53 1.60 1.65 1.61 1.60 1.56 1.54 1.52 1.53 1.58 1.58 1.59 1.62 1.63 1.60 1.49 1.58 1.54 1.57 1.69 1.70 1.76 1.81 1.72 1.79 1.92 1.83 1.67
0.77 0.80 0.86 0.93 1.00 1.06 1.13 1.17 1.10 1.04 0.92 0.96 1.17 1.29 1.39 1.53 1.60 1.61 1.69 1.67 1.68 1.61 1.58 1.64 1.71 1.72 1.66 1.66 1.66 1.68 1.64 1.60 1.61 1.64 1.66 1.66 1.71 1.70 1.71 1.79 1.85 1.94 1.96
0.89 0.77 0.84 0.92 0.96 0.97 1.04 1.16 1.11 0.95 0.87 0.87 1.04 1.18 1.24 1.43 1.52 1.60 1.61 1.73 1.74 1.71 1.76 1.75 1.76 1.75 1.74 1.71 1.73 1.71 1.70 1.62 1.58 1.58 1.58 1.65 1.75 1.79 1.85 1.84 1.83 1.85 1.90
0.92 0.81 0.83 0.84 0.87 0.98 1.07 1.15 1.06 0.93 0.87 0.88 0.96 1.03 1.23 1.37 1.40 1.52 1.63 1.66 1.73 1.72 1.73 1.74 1.72 1.70 1.71 1.70 1.70 1.69 1.68 1.66 1.66 1.67 1.71 1.77 1.83 1.80 1.81 1.85 1.78 1.79 1.74
0.89 0.80 0.78 0.81 0.87 0.86 0.99 1.12 1.06 1.00 0.94 0.87 0.96 1.08 1.10 1.26 1.37 1.39 1.44 1.44 1.55 1.57 1.60 1.61 1.55 1.50 1.46 1.45 1.42 1.45 1.56 1.62 1.62 1.65 1.64 1.64 1.69 1.72 1.73 1.85 1.81 1.78 1.70
0.86 0.75 0.77 0.80 0.84 0.80 0.88 0.91 1.03 1.02 0.96 0.95 1.01 1.05 1.09 1.17 1.35 1.39 1.35 1.34 1.37 1.40 1.38 1.32 1.30 1.30 1.30 1.32 1.28 1.32 1.34 1.47 1.57 1.58 1.59 1.59 1.57 1.60 1.61 1.66 1.70 1.69 1.61
0.82 0.81 0.81 0.81 0.83 0.83 0.90 0.86 0.84 0.98 0.93 0.95 0.96 1.02 1.08 1.07 1.03 1.14 1.24 1.13 1.13 1.07 0.96 0.95 0.96 1.01 1.05 1.04 1.07 1.15 1.30 1.39 1.44 1.44 1.35 1.46 1.46 1.47 1.40 1.43 1.45 1.47 1.43
0.91 0.88 0.80 0.83 0.84 0.87 0.97 0.87 0.90 0.91 0.87 0.91 0.93 0.91 0.99 1.04 1.04 1.06 1.06 1.04 0.96 0.99 0.96 0.95 0.93 0.95 0.93 0.89 0.87 0.87 0.94 1.10 1.19 1.29 1.23 1.24 1.24 1.21 1.15 1.20 1.32 1.34 1.31
0.90 0.90 0.92 0.89 0.90 0.93 1.00 0.91 0.88 0.90 0.90 0.91 0.94 0.92 0.89 0.88 0.95 0.95 0.96 0.93 0.94 0.93 0.94 0.94 0.94 0.92 0.93 0.96 0.97 0.97 0.95 0.90 0.86 0.86 0.91 1.00 1.02 0.96 0.95 0.98 0.98 0.98 1.01
0.99 0.98 0.93 0.93 0.91 0.91 0.91 0.90 0.87 0.84 0.86 0.90 0.85 0.81 0.80 0.77 0.70 0.72 0.74 0.73 0.74 0.75 0.80 0.87 0.95 1.00 0.95 0.94 0.94 0.92 0.93 0.93 0.93 0.93 0.93 0.93 0.94 0.93 0.93 0.92 0.89 0.81 0.82
1.06 1.03 0.94 0.88 0.87 0.88 0.90 0.90 0.93 0.87 0.84 0.80 0.79 0.81 0.79 0.74 0.70 0.66 0.63 0.62 0.62 0.64 0.66 0.69 0.73 0.83 0.92 0.93 0.90 0.86 0.81 0.87 0.85 0.85 0.86 0.86 0.89 0.91 0.97 0.97 0.93 0.94 0.91
1.04 1.02 1.00 0.95 0.87 0.88 0.89 0.88 0.93 0.89 0.82 0.80 0.77 0.75 0.72 0.68 0.64 0.60 0.57 0.55 0.55 0.54 0.54 0.54 0.54 0.57 0.63 0.72 0.78 0.77 0.79 0.79 0.82 0.83 0.83 0.89 0.86 0.84 0.83 0.82 0.89 0.90 0.90
1.07 1.04 1.03 0.97 0.90 0.88 0.86 0.83 0.83 0.82 0.80 0.78 0.76 0.69 0.67 0.64 0.59 0.54 0.51 0.51 0.50 0.49 0.49 0.48 0.48 0.49 0.51 0.50 0.51 0.53 0.57 0.63 0.68 0.70 0.68 0.70 0.71 0.68 0.71 0.80 0.77 0.72 0.75
1.01 0.97 0.95 0.92 0.85 0.78 0.75 0.72 0.70 0.68 0.68 0.65 0.60 0.56 0.53 0.49 0.47 0.46 0.45 0.47 0.47 0.48 0.48 0.49 0.51 0.51 0.51 0.52 0.52 0.50 0.47 0.47 0.48 0.46 0.47 0.47 0.49 0.52 0.52 0.52 0.51 0.53 0.58
0.95 0.89 0.83 0.77 0.72 0.66 0.62 0.58 0.53 0.50 0.50 0.49 0.46 0.45 0.43 0.43 0.42 0.42 0.42 0.43 0.43 0.42 0.43 0.44 0.44 0.47 0.50 0.52 0.53 0.50 0.48 0.46 0.46 0.45 0.47 0.47 0.45 0.44 0.43 0.42 0.41 0.39 0.39
0.79 0.75 0.71 0.65 0.58 0.52 0.49 0.49 0.48 0.46 0.43 0.43 0.43 0.42 0.41 0.40 0.40 0.41 0.41 0.41 0.40 0.41 0.41 0.42 0.42 0.43 0.44 0.47 0.49 0.46 0.45 0.44 0.43 0.43 0.43 0.43 0.41 0.40 0.40 0.39 0.38 0.38 0.38

GFSGL_prec_pwat_141.txt.gz
Precipitable_Water
1.26 1.25 1.20 1.10 1.02 0.94 0.89 0.90 0.90 0.93 0.96 0.99 1.00 1.01 1.03 1.05 1.10 1.10 1.12 1.13 1.10 1.07 1.10 1.09 1.08 1.19 1.24 1.31 1.46 1.58 1.52 1.54 1.52 2.16 1.92 1.83 1.76 1.86 1.86 1.85 1.80 1.77 1.72
1.31 1.26 1.18 1.04 0.96 0.91 0.92 0.92 0.93 0.96 1.00 1.01 1.05 1.09 1.16 1.16 1.17 1.12 1.04 1.05 1.02 1.00 1.06 1.09 1.09 1.15 1.13 1.22 1.29 1.40 1.48 1.52 1.44 1.40 1.61 1.56 1.94 2.16 1.89 1.85 1.85 1.85 1.76
1.32 1.23 1.12 0.97 0.97 0.92 0.87 0.84 0.84 0.94 1.01 1.09 1.13 1.14 1.12 1.14 1.09 1.04 1.06 1.03 1.01 1.01 1.05 1.15 1.17 1.16 1.14 1.14 1.19 1.30 1.45 1.54 1.57 1.32 1.34 1.87 2.10 1.98 1.99 1.93 2.23 1.94 1.96
1.28 1.19 1.02 0.99 0.95 0.88 0.87 0.90 0.94 1.02 1.08 1.13 1.18 1.23 1.19 1.12 1.04 1.05 1.06 0.99 0.99 1.07 1.19 1.24 1.30 1.29 1.19 1.23 1.20 1.22 1.39 1.52 1.59 1.50 1.45 1.62 1.85 1.92 1.97 1.94 1.77 1.85 1.87
1.22 1.10 1.02 1.02 0.95 0.89 0.91 1.02 1.03 1.11 1.16 1.23 1.20 1.19 1.22 1.03 1.03 1.03 1.05 1.07 1.07 1.23 1.38 1.48 1.41 1.39 1.41 1.42 1.34 1.24 1.37 1.48 1.54 1.49 1.45 1.42 1.50 1.42 1.32 1.41 1.38 1.47 1.82
1.13 1.06 1.03 0.99 0.91 0.87 0.91 0.99 1.06 1.12 1.18 1.14 1.14 1.15 1.04 1.06 1.06 1.08 1.13 1.13 1.25 1.34 1.38 1.53 1.52 1.51 1.51 1.45 1.45 1.39 1.45 1.48 1.51 1.45 1.41 1.35 1.35 1.33 1.26 1.18 1.14 1.22 1.32
1.10 1.05 1.02 0.92 0.87 0.87 0.93 0.98 1.08 1.08 1.07 1.09 1.08 1.07 0.98 1.01 1.05 1.09 1.20 1.31 1.41 1.47 1.45 1.45 1.53 1.57 1.55 1.50 1.54 1.46 1.40 1.52 1.66 1.62 1.43 1.42 1.33 1.31 1.31 1.20 1.16 1.17 1.29
1.07 1.03 0.98 0.92 0.85 0.90 0.98 1.01 1.03 1.02 1.04 1.09 1.04 0.98 0.97 1.08 1.13 1.23 1.30 1.43 1.49 1.53 1.50 1.48 1.47 1.51 1.58 1.60 1.60 1.56 1.37 1.42 1.57 1.61 1.51 1.44 1.49 1.53 1.50 1.33 1.23 1.30 1.38
1.02 1.02 0.97 0.90 0.90 0.93 0.91 0.93 1.02 1.02 1.10 1.05 0.95 1.04 1.14 1.14 1.19 1.29 1.41 1.45 1.52 1.53 1.57 1.59 1.49 1.49 1.61 1.62 1.59 1.50 1.49 1.46 1.54 1.56 1.55 1.49 1.47 1.51 1.48 1.42 1.29 1.27 1.29
1.08 1.01 0.95 0.91 0.92 0.90 0.92 0.96 1.06 1.07 1.06 1.00 0.98 1.08 1.18 1.04 1.20 1.33 1.51 1.50 1.50 1.54 1.60 1.65 1.57 1.54 1.60 1.58 1.55 1.54 1.49 1.54 1.50 1.50 1.46 1.42 1.43 1.38 1.38 1.44 1.38 1.18 1.40
1.09 1.01 0.95 0.95 0.96 0.97 0.98 1.01 1.02 1.02 1.04 1.06 0.99 1.00 1.06 1.08 1.23 1.36 1.54 1.48 1.55 1.55 1.57 1.65 1.69 1.66 1.53 1.50 1.57 1.62 1.58 1.67 1.62 1.57 1.49 1.47 1.49 1.51 1.51 1.55 1.54 1.50 1.37
1.08 1.00 0.97 0.97 0.98 1.01 0.99 1.03 0.99 1.02 0.98 0.95 0.90 0.93 0.96 1.03 1.25 1.31 1.51 1.54 1.57 1.59 1.57 1.63 1.65 1.65 1.61 1.52 1.54 1.59 1.60 1.63 1.57 1.49 1.49 1.49 1.51 1.54 1.63 1.65 1.69 1.62 1.57
1.06 0.99 1.03 1.00 0.95 1.01 0.99 0.97 1.00 1.02 0.96 0.83 0.85 0.88 0.90 1.07 1.22 1.29 1.43 1.48 1.56 1.54 1.58 1.61 1.64 1.64 1.63 1.61 1.59 1.58 1.54 1.46 1.41 1.42 1.46 1.60 1.69 1.77 1.76 1.61 1.65 1.78 1.84
1.10 1.06 1.06 0.97 0.96 0.93 0.97 0.94 0.91 0.94 0.90 0.85 0.92 0.87 0.90 0.96 1.12 1.14 1.37 1.38 1.49 1.53 1.50 1.56 1.63 1.63 1.62 1.61 1.59 1.61 1.61 1.62 1.58 1.55 1.59 1.64 1.71 1.70 1.62 1.67 1.63 1.64 1.64
1.18 1.15 1.09 0.97 0.92 0.94 0.99 0.96 0.86 0.94 0.89 0.88 0.96 0.93 0.86 0.90 1.03 1.05 1.14 1.26 1.34 1.45 1.50 1.46 1.38 1.41 1.42 1.46 1.48 1.48 1.50 1.55 1.53 1.55 1.54 1.53 1.56 1.57 1.54 1.66 1.67 1.65 1.58
1.22 1.23 1.12 0.96 0.91 0.87 0.93 0.97 1.03 1.01 0.96 0.97 1.02 0.98 0.97 0.96 1.03 1.08 0.99 1.15 1.29 1.32 1.26 1.27 1.24 1.20 1.06 1.15 1.21 1.23 1.30 1.39 1.42 1.44 1.45 1.47 1.48 1.48 1.52 1.57 1.57 1.52 1.46
1.05 1.11 1.00 0.92 0.88 0.88 0.94 0.93 0.94 0.98 1.15 0.96 0.95 0.92 0.85 0.79 0.83 0.87 0.96 0.89 0.96 1.14 1.22 1.27 1.23 1.18 1.11 1.06 1.08 1.13 1.05 1.15 1.29 1.34 1.38 1.32 1.29 1.38 1.38 1.35 1.37 1.34 1.31
1.10 1.16 0.99 0.92 0.84 0.97 1.02 0.87 0.86 1.09 0.97 0.89 0.95 0.96 0.89 0.84 0.78 0.73 0.73 0.76 0.73 0.84 0.92 1.02 1.03 1.10 1.10 1.11 1.12 1.07 1.03 1.05 1.07 1.12 1.21 1.25 1.23 1.22 1.15 1.21 1.18 1.15 1.17
1.22 1.06 1.02 0.95 1.04 1.00 0.98 0.90 0.99 1.03 0.89 0.93 0.94 0.93 0.88 0.79 0.71 0.67 0.63 0.59 0.58 0.63 0.72 0.74 0.83 0.86 0.88 0.93 0.94 0.93 0.91 0.89 0.90 0.90 0.92 1.00 1.09 1.18 1.20 1.16 1.08 1.06 1.08
1.10 1.04 1.05 1.07 1.03 0.96 0.99 1.06 0.96 1.01 0.92 0.93 0.84 0.76 0.76 0.72 0.63 0.58 0.56 0.55 0.54 0.53 0.56 0.59 0.61 0.71 0.81 0.86 0.84 0.83 0.85 0.82 0.84 0.83 0.84 0.84 0.86 0.91 0.94 1.03 1.10 1.12 1.16
1.20 1.05 1.17 0.91 1.03 1.05 1.02 1.04 1.03 0.95 0.92 0.85 0.87 0.81 0.73 0.66 0.61 0.58 0.55 0.55 0.54 0.55 0.56 0.57 0.58 0.55 0.54 0.52 0.58 0.61 0.65 0.69 0.69 0.70 0.72 0.74 0.77 0.79 0.81 0.79 0.82 0.88 0.87
1.15 1.14 1.07 1.05 1.05 1.15 1.15 1.07 1.02 0.96 0.89 0.87 0.85 0.76 0.62 0.59 0.55 0.53 0.54 0.54 0.55 0.55 0.58 0.59 0.57 0.58 0.58 0.56 0.53 0.47 0.44 0.44 0.45 0.45 0.49 0.52 0.52 0.54 0.58 0.62 0.63 0.62 0.64
1.09 1.10 1.13 1.17 1.14 1.07 1.07 1.06 0.99 0.93 0.87 0.81 0.66 0.57 0.55 0.53 0.52 0.52 0.52 0.52 0.52 0.52 0.51 0.51 0.50 0.51 0.54 0.59 0.59 0.50 0.41 0.40 0.43 0.42 0.40 0.42 0.44 0.45 0.45 0.44 0.44 0.43 0.44
1.12 1.08 1.09 1.09 1.10 1.16 1.08 0.96 0.83 0.76 0.71 0.59 0.54 0.53 0.53 0.52 0.51 0.50 0.49 0.48 0.48 0.48 0.48 0.48 0.49 0.48 0.51 0.57 0.54 0.46 0.40 0.39 0.41 0.38 0.39 0.39 0.40 0.43 0.43 0.43 0.42 0.44 0.43
1.14 1.11 1.07 1.07 1.04 0.94 0.89 0.81 0.72 0.61 0.53 0.51 0.50 0.51 0.51 0.50 0.48 0.48 0.47 0.47 0.45 0.45 0.45 0.46 0.47 0.47 0.52 0.47 0.43 0.39 0.37 0.36 0.35 0.34 0.34 0.34 0.35 0.37 0.38 0.37 0.38 0.35 0.35
0.99 0.99 0.96 0.91 0.85 0.81 0.75 0.67 0.58 0.56 0.56 0.53 0.51 0.50 0.50 0.47 0.46 0.48 0.45 0.44 0.42 0.41 0.40 0.42 0.44 0.44 0.50 0.48 0.40 0.36 0.35 0.34 0.34 0.34 0.34 0.36 0.36 0.35 0.36 0.35 0.35 0.35 0.35

GFSGL_prec_pwat_144.txt.gz
Precipitable_Water
1.36 1.28 1.22 1.26 1.26 1.18 1.04 0.98 0.97 0.94 0.96 0.98 0.97 1.00 1.09 1.20 1.23 1.20 1.17 1.16 1.07 0.93 0.98 1.02 0.98 0.95 0.94 1.06 1.14 1.17 1.28 1.36 1.21 1.33 1.42 1.28 1.43 1.57 1.90 2.13 2.06 2.09 1.82
1.36 1.30 1.31 1.32 1.26 1.15 1.03 1.00 0.96 0.88 0.93 0.98 1.04 1.08 1.13 1.23 1.27 1.23 1.17 1.05 0.94 0.97 1.02 1.01 0.92 0.95 0.92 1.00 1.11 1.11 1.16 1.29 1.31 1.13 1.47 1.52 1.45 1.54 1.77 1.97 2.12 2.20 2.11
1.42 1.35 1.32 1.29 1.23 1.13 1.07 1.01 0.93 0.94 0.97 1.08 1.17 1.22 1.24 1.22 1.21 1.21 1.10 1.07 1.03 0.98 0.97 0.96 0.94 0.97 0.91 0.94 0.94 1.09 1.19 1.20 1.37 1.23 1.27 1.55 1.55 1.49 1.35 1.74 1.79 2.03 2.58
1.42 1.36 1.30 1.25 1.20 1.11 1.05 0.98 1.00 1.01 1.05 1.13 1.21 1.22 1.15 1.14 1.09 1.05 1.02 0.96 0.93 0.95 0.98 0.97 0.98 1.03 1.02 1.11 1.17 1.17 1.27 1.24 1.26 1.31 1.25 1.38 1.52 1.52 1.53 1.61 1.74 1.82 1.82
1.41 1.35 1.28 1.27 1.18 1.10 1.02 0.97 1.01 1.03 1.12 1.16 1.11 1.08 1.07 1.11 1.03 1.00 0.98 0.96 1.00 1.00 1.05 1.08 1.13 1.22 1.25 1.31 1.37 1.35 1.36 1.28 1.25 1.24 1.22 1.37 1.47 1.51 1.42 1.46 1.71 1.83 1.98
1.41 1.32 1.30 1.23 1.15 1.05 1.01 0.97 1.01 1.10 1.07 1.02 0.99 1.05 1.05 1.07 1.02 1.02 0.97 0.97 1.08 1.14 1.12 1.18 1.29 1.35 1.43 1.46 1.46 1.52 1.43 1.32 1.34 1.25 1.22 1.27 1.45 1.52 1.53 1.51 1.49 1.50 1.39
1.36 1.29 1.24 1.17 1.06 1.04 1.00 1.03 1.09 1.04 1.03 0.97 1.04 0.95 1.02 0.99 1.00 0.99 0.97 1.15 1.23 1.26 1.31 1.37 1.43 1.52 1.55 1.49 1.54 1.56 1.52 1.44 1.44 1.47 1.32 1.33 1.44 1.55 1.54 1.49 1.46 1.42 1.30
1.30 1.22 1.16 1.07 1.06 1.05 1.05 1.03 1.01 1.01 0.97 1.00 1.00 1.06 1.00 0.97 0.95 0.89 1.09 1.25 1.36 1.42 1.50 1.55 1.53 1.51 1.51 1.50 1.56 1.59 1.55 1.48 1.42 1.49 1.47 1.59 1.62 1.65 1.72 1.65 1.56 1.43 1.40
1.16 1.11 1.10 1.09 1.05 1.05 0.98 0.96 0.95 0.91 0.89 0.95 1.04 1.01 0.98 0.89 0.83 0.93 1.22 1.32 1.40 1.51 1.61 1.64 1.62 1.56 1.57 1.59 1.53 1.54 1.55 1.51 1.57 1.53 1.47 1.55 1.67 1.73 1.68 1.61 1.46 1.37 1.23
1.12 1.13 1.15 1.12 1.07 1.02 0.98 0.93 0.93 0.90 0.90 0.99 0.97 1.01 0.97 0.85 0.87 0.99 1.26 1.33 1.36 1.45 1.54 1.62 1.71 1.71 1.60 1.62 1.61 1.53 1.49 1.55 1.61 1.58 1.46 1.46 1.54 1.61 1.64 1.58 1.46 1.32 1.30
1.21 1.20 1.15 1.11 1.06 1.04 0.99 0.95 0.88 0.87 1.00 1.01 1.03 0.93 0.88 0.85 0.88 1.00 1.26 1.33 1.36 1.43 1.47 1.53 1.60 1.72 1.70 1.58 1.65 1.63 1.62 1.68 1.64 1.65 1.59 1.53 1.55 1.58 1.58 1.54 1.50 1.39 1.25
1.21 1.18 1.14 1.14 1.07 1.04 1.01 0.90 0.88 0.97 1.02 1.04 0.99 0.80 0.87 0.83 0.91 1.00 1.15 1.32 1.41 1.41 1.45 1.53 1.54 1.63 1.65 1.59 1.52 1.59 1.72 1.75 1.72 1.68 1.66 1.61 1.56 1.55 1.58 1.63 1.66 1.68 1.69
1.21 1.20 1.20 1.26 1.15 1.07 0.93 0.88 0.95 1.05 1.04 0.91 0.83 0.80 0.82 0.82 0.89 1.01 1.09 1.26 1.38 1.44 1.46 1.50 1.56 1.62 1.61 1.64 1.59 1.54 1.59 1.59 1.57 1.52 1.51 1.56 1.61 1.69 1.71 1.71 1.74 1.74 1.71
1.30 1.30 1.38 1.38 1.27 1.11 1.07 1.09 1.07 0.98 0.91 0.80 0.77 0.80 0.83 0.85 0.85 0.93 1.01 1.08 1.28 1.44 1.44 1.42 1.44 1.50 1.52 1.53 1.53 1.52 1.53 1.51 1.44 1.40 1.39 1.44 1.48 1.50 1.54 1.68 1.62 1.63 1.56
1.42 1.29 1.20 1.31 1.27 1.14 1.12 1.06 1.06 1.00 0.94 0.90 0.89 0.85 0.81 0.80 0.78 0.89 0.91 0.92 1.07 1.34 1.41 1.42 1.38 1.33 1.33 1.38 1.43 1.43 1.45 1.48 1.49 1.49 1.47 1.46 1.50 1.53 1.54 1.61 1.60 1.54 1.45
1.37 1.21 1.18 1.21 1.26 1.11 1.02 0.98 1.10 1.08 0.98 0.96 0.96 0.83 0.80 0.77 0.72 0.74 0.81 0.78 0.90 1.06 1.22 1.24 1.26 1.26 1.22 1.20 1.19 1.23 1.36 1.36 1.31 1.34 1.36 1.40 1.38 1.37 1.40 1.41 1.42 1.35 1.32
1.19 1.10 1.07 1.19 1.07 0.95 1.01 0.99 0.94 1.06 0.99 1.04 0.93 0.86 0.85 0.74 0.69 0.63 0.66 0.70 0.76 0.92 0.93 1.06 1.09 1.10 1.12 1.14 1.11 1.11 1.13 1.25 1.42 1.44 1.34 1.23 1.21 1.23 1.25 1.23 1.25 1.22 1.15
1.07 1.02 0.96 0.97 0.97 0.98 0.97 1.07 1.07 1.08 0.89 0.96 0.89 0.92 0.84 0.73 0.67 0.62 0.53 0.54 0.54 0.66 0.77 0.79 0.90 0.97 0.96 0.98 0.93 0.91 0.92 0.92 0.95 1.00 1.04 1.08 1.15 1.17 1.16 1.17 1.20 1.13 1.15
1.16 1.12 1.12 1.08 1.00 0.96 1.05 1.03 1.09 1.05 0.97 1.23 0.97 0.94 0.90 0.79 0.70 0.64 0.59 0.53 0.52 0.53 0.59 0.63 0.67 0.70 0.82 0.85 0.84 0.86 0.83 0.85 0.84 0.85 0.88 0.90 0.93 0.96 0.98 1.05 1.12 1.15 1.13
1.28 1.31 1.22 1.12 1.19 1.05 1.13 1.16 1.11 1.07 1.14 1.05 0.82 0.80 0.85 0.76 0.63 0.57 0.58 0.57 0.57 0.57 0.60 0.61 0.61 0.59 0.57 0.64 0.67 0.69 0.70 0.69 0.71 0.72 0.73 0.76 0.79 0.80 0.78 0.80 0.83 0.86 0.88
1.15 1.29 1.07 1.02 1.17 1.17 1.10 1.08 1.04 1.09 1.09 0.91 0.86 0.77 0.73 0.63 0.57 0.56 0.56 0.57 0.55 0.56 0.60 0.59 0.59 0.59 0.61 0.55 0.49 0.44 0.43 0.43 0.43 0.47 0.54 0.54 0.56 0.54 0.62 0.65 0.65 0.66 0.65
1.29 1.15 1.04 1.01 1.05 1.05 1.05 1.07 1.22 1.15 1.06 0.92 0.84 0.68 0.58 0.55 0.55 0.54 0.56 0.56 0.56 0.54 0.54 0.54 0.52 0.52 0.58 0.54 0.51 0.39 0.35 0.36 0.37 0.36 0.38 0.41 0.44 0.43 0.44 0.44 0.43 0.44 0.45
1.17 1.09 1.09 1.08 1.07 1.07 1.06 1.05 1.10 1.08 0.99 0.83 0.71 0.60 0.54 0.54 0.56 0.55 0.54 0.52 0.51 0.51 0.51 0.52 0.50 0.54 0.56 0.52 0.45 0.36 0.32 0.32 0.34 0.34 0.33 0.35 0.39 0.40 0.42 0.41 0.41 0.41 0.40
1.13 1.14 1.12 1.08 1.05 1.05 1.02 0.98 0.97 0.86 0.81 0.70 0.60 0.54 0.54 0.54 0.55 0.55 0.53 0.50 0.50 0.50 0.50 0.49 0.50 0.50 0.47 0.44 0.40 0.35 0.34 0.34 0.34 0.32 0.32 0.32 0.34 0.36 0.36 0.36 0.37 0.36 0.34
1.11 1.10 1.10 1.07 1.01 0.98 0.98 0.99 0.86 0.72 0.62 0.56 0.56 0.55 0.54 0.55 0.54 0.52 0.49 0.47 0.45 0.44 0.44 0.46 0.46 0.49 0.48 0.46 0.40 0.36 0.34 0.34 0.34 0.34 0.35 0.37 0.39 0.39 0.39 0.38 0.37 0.36 0.36
1.01 1.00 0.98 0.96 0.92 0.88 0.83 0.78 0.72 0.66 0.57 0.55 0.55 0.56 0.56 0.52 0.51 0.47 0.45 0.43 0.40 0.41 0.42 0.44 0.45 0.47 0.50 0.46 0.40 0.37 0.37 0.36 0.35 0.34 0.35 0.37 0.37 0.38 0.36 0.34 0.32 0.31 0.32

GFSGL_prec_pwat_147.txt.gz
Precipitable_Water
1.62 1.70 1.53 1.39 1.32 1.29 1.24 1.21 1.17 1.14 1.08 1.00 0.99 1.00 1.05 1.15 1.24 1.20 1.16 1.16 1.10 1.05 1.04 0.98 0.96 0.98 0.95 0.96 0.97 0.95 0.94 0.95 0.86 0.88 1.09 1.31 1.36 1.30 1.46 1.57 1.71 1.64 2.11
1.63 1.62 1.46 1.34 1.32 1.27 1.23 1.20 1.16 1.04 1.09 1.08 1.09 1.09 1.11 1.15 1.15 1.07 1.02 1.05 0.97 0.91 0.89 0.85 0.80 0.83 0.83 0.88 0.92 0.90 0.90 0.92 0.90 0.83 1.01 1.03 1.17 1.30 1.36 1.52 1.63 1.93 1.88
1.51 1.58 1.46 1.34 1.32 1.28 1.23 1.20 1.12 1.12 1.17 1.19 1.16 1.09 1.06 1.01 1.00 1.05 1.06 0.97 0.93 0.85 0.81 0.79 0.83 0.90 0.89 0.96 0.94 0.89 0.91 0.92 0.97 0.89 0.90 1.09 1.07 1.34 1.24 1.48 1.61 1.75 1.80
1.47 1.43 1.43 1.43 1.35 1.29 1.24 1.17 1.11 1.22 1.22 1.20 1.13 1.05 1.01 1.02 1.01 1.04 1.00 0.94 0.83 0.82 0.84 0.91 1.00 1.08 1.07 1.06 1.04 1.00 1.02 1.03 1.04 1.02 0.96 1.03 1.12 1.24 1.31 1.26 1.41 1.59 1.50
1.45 1.41 1.40 1.42 1.38 1.26 1.21 1.16 1.13 1.20 1.19 1.16 1.02 0.98 0.95 0.95 1.01 0.99 0.90 0.79 0.86 0.88 0.94 1.07 1.20 1.35 1.34 1.29 1.18 1.17 1.18 1.11 1.15 1.15 1.03 1.04 1.14 1.12 1.23 1.27 1.33 1.53 1.55
1.41 1.41 1.44 1.43 1.29 1.20 1.15 1.14 1.13 1.17 1.14 1.07 0.96 0.95 0.93 1.00 0.98 0.91 0.81 0.82 0.86 0.92 0.98 1.20 1.40 1.50 1.50 1.46 1.41 1.39 1.37 1.24 1.18 1.24 1.22 1.13 1.13 1.16 1.29 1.34 1.42 1.50 1.38
1.44 1.44 1.41 1.32 1.17 1.10 1.10 1.10 1.12 1.12 1.09 0.98 0.93 0.94 0.93 0.94 0.97 0.89 0.86 0.86 0.96 1.01 1.17 1.25 1.46 1.58 1.60 1.56 1.55 1.53 1.50 1.49 1.44 1.40 1.33 1.31 1.20 1.27 1.29 1.34 1.48 1.53 1.53
1.32 1.30 1.31 1.17 1.04 1.06 1.04 1.10 1.11 1.07 0.99 0.90 0.92 0.96 0.91 0.95 0.90 0.86 0.84 0.87 0.95 1.19 1.31 1.39 1.50 1.56 1.60 1.60 1.54 1.48 1.48 1.55 1.58 1.53 1.46 1.39 1.45 1.45 1.41 1.46 1.54 1.62 1.74
1.30 1.24 1.25 1.09 1.05 1.03 1.08 1.11 1.07 0.97 0.92 0.90 0.94 0.93 0.97 0.91 0.87 0.81 0.83 0.89 1.09 1.27 1.33 1.50 1.57 1.56 1.65 1.66 1.53 1.47 1.52 1.57 1.70 1.66 1.54 1.45 1.46 1.53 1.60 1.58 1.56 1.56 1.51
1.30 1.34 1.20 1.11 1.07 1.07 1.13 1.12 1.03 1.00 0.97 0.99 0.91 1.01 1.02 0.87 0.86 0.75 0.85 0.92 1.15 1.29 1.30 1.49 1.58 1.55 1.67 1.72 1.54 1.55 1.52 1.49 1.54 1.52 1.47 1.46 1.50 1.57 1.71 1.72 1.66 1.48 1.45
1.40 1.38 1.14 1.16 1.11 1.14 1.22 1.17 1.15 1.09 1.11 1.04 0.99 0.98 0.93 0.86 0.83 0.74 0.78 0.96 1.24 1.29 1.32 1.41 1.52 1.52 1.57 1.63 1.63 1.66 1.64 1.66 1.63 1.64 1.62 1.52 1.49 1.51 1.55 1.62 1.68 1.62 1.47
1.40 1.24 1.19 1.22 1.15 1.19 1.25 1.34 1.26 1.11 1.14 1.04 1.01 0.90 0.87 0.85 0.85 0.77 0.80 0.97 1.27 1.31 1.32 1.38 1.47 1.53 1.56 1.61 1.54 1.57 1.70 1.68 1.71 1.66 1.64 1.57 1.53 1.49 1.57 1.66 1.76 1.77 1.76
1.45 1.33 1.35 1.32 1.37 1.35 1.23 1.15 1.08 1.16 1.21 1.08 0.95 0.84 0.87 0.83 0.84 0.71 0.75 0.88 1.13 1.33 1.38 1.38 1.40 1.45 1.51 1.53 1.55 1.54 1.53 1.61 1.61 1.53 1.51 1.54 1.69 1.72 1.74 1.73 1.79 1.71 1.70
1.48 1.52 1.45 1.30 1.27 1.31 1.23 1.14 1.18 1.21 1.15 1.02 0.91 0.85 0.84 0.73 0.70 0.59 0.70 0.80 0.98 1.20 1.34 1.36 1.39 1.45 1.45 1.45 1.42 1.41 1.44 1.48 1.47 1.44 1.48 1.56 1.62 1.58 1.56 1.63 1.62 1.61 1.54
1.55 1.39 1.29 1.26 1.23 1.13 1.15 1.28 1.29 1.27 1.14 1.02 0.97 0.88 0.78 0.69 0.62 0.56 0.62 0.74 0.86 1.03 1.19 1.20 1.19 1.25 1.31 1.36 1.42 1.42 1.40 1.38 1.34 1.36 1.33 1.33 1.33 1.33 1.33 1.41 1.41 1.41 1.38
1.33 1.15 1.19 1.11 1.05 1.01 1.10 1.25 1.28 1.15 1.18 1.09 1.06 0.91 0.85 0.75 0.65 0.56 0.55 0.66 0.71 0.87 0.99 0.98 0.98 1.03 1.00 1.06 1.12 1.26 1.35 1.38 1.35 1.33 1.35 1.33 1.28 1.26 1.23 1.26 1.25 1.25 1.24
1.08 1.08 1.14 1.02 0.93 1.02 1.10 1.09 1.03 1.12 1.10 1.07 1.07 0.97 0.87 0.74 0.65 0.59 0.53 0.57 0.61 0.65 0.71 0.79 0.90 0.86 0.87 0.91 0.88 0.90 0.99 1.14 1.21 1.18 1.17 1.23 1.24 1.27 1.27 1.29 1.32 1.29 1.22
1.06 1.00 0.94 0.89 1.04 1.24 1.16 1.06 1.07 1.03 1.02 0.96 1.05 1.00 0.88 0.77 0.70 0.62 0.60 0.54 0.52 0.56 0.58 0.61 0.66 0.76 0.81 0.78 0.77 0.80 0.82 0.84 0.86 0.91 0.91 0.93 0.94 0.98 0.99 1.05 1.09 1.10 1.16
1.10 1.08 1.14 1.14 1.19 1.20 1.13 1.07 1.08 1.12 1.04 1.04 1.04 1.06 0.91 0.85 0.72 0.64 0.64 0.55 0.54 0.55 0.57 0.60 0.63 0.60 0.63 0.66 0.68 0.71 0.73 0.72 0.74 0.74 0.76 0.79 0.80 0.80 0.79 0.82 0.84 0.86 0.87
1.11 1.18 1.19 1.23 1.22 1.20 1.12 1.06 1.00 1.07 1.12 1.12 1.06 0.89 0.83 0.83 0.69 0.63 0.60 0.57 0.56 0.56 0.56 0.53 0.57 0.57 0.54 0.50 0.43 0.42 0.41 0.42 0.51 0.55 0.55 0.58 0.63 0.65 0.63 0.61 0.62 0.62 0.62
1.12 1.15 1.17 1.13 1.12 1.08 1.06 1.04 1.03 1.07 1.07 1.04 0.93 0.82 0.76 0.60 0.58 0.60 0.59 0.59 0.56 0.54 0.52 0.52 0.52 0.51 0.51 0.45 0.38 0.33 0.33 0.34 0.35 0.36 0.41 0.44 0.44 0.42 0.45 0.45 0.46 0.46 0.44
1.03 1.13 1.15 1.11 1.10 1.05 1.06 1.06 1.03 1.09 1.12 1.06 0.86 0.69 0.64 0.57 0.55 0.54 0.55 0.57 0.54 0.54 0.53 0.55 0.52 0.49 0.44 0.39 0.31 0.29 0.28 0.28 0.30 0.30 0.32 0.38 0.38 0.39 0.40 0.41 0.40 0.40 0.39
1.10 1.09 1.08 1.06 1.04 1.03 1.02 1.05 1.06 1.10 1.11 1.05 0.90 0.74 0.62 0.58 0.56 0.55 0.55 0.55 0.54 0.51 0.54 0.53 0.49 0.44 0.43 0.40 0.32 0.32 0.30 0.30 0.31 0.32 0.31 0.33 0.34 0.35 0.36 0.35 0.34 0.33 0.32
1.06 1.08 1.10 1.11 1.11 1.07 1.04 1.04 1.06 1.01 0.94 0.86 0.74 0.65 0.61 0.59 0.56 0.55 0.54 0.51 0.49 0.49 0.49 0.48 0.47 0.45 0.44 0.42 0.38 0.37 0.36 0.34 0.33 0.33 0.35 0.35 0.36 0.37 0.36 0.35 0.33 0.32 0.33
1.05 1.08 1.06 1.10 1.11 1.06 1.01 0.99 0.92 0.81 0.77 0.71 0.66 0.61 0.61 0.60 0.58 0.55 0.51 0.46 0.45 0.45 0.45 0.48 0.48 0.48 0.47 0.43 0.35 0.32 0.38 0.38 0.37 0.36 0.38 0.39 0.39 0.37 0.36 0.34 0.31 0.29 0.29
0.99 1.00 0.99 0.97 0.95 0.95 0.93 0.85 0.78 0.72 0.68 0.65 0.61 0.60 0.58 0.56 0.53 0.50 0.45 0.42 0.41 0.42 0.43 0.46 0.47 0.45 0.41 0.37 0.32 0.29 0.30 0.35 0.38 0.39 0.40 0.40 0.39 0.37 0.36 0.33 0.33 0.31 0.30